STARLINK-34812 (66026 NORAD) Tracking and Keplerian Element Data

This shows tracking and keplerian element data for the satellite.

Feedback or suggestion? Click here.




ElementValue
Catalog66026
NameSTARLINK-34812
Epoch Orbit1119
Epoch Day353.82621443
Epoch Year2025
RAAN115.1817
Inclination53.1587
Eccentricity4.42E-05
Argument of Perigee31.3959
Mean Anonmoly328.7068
Mean Motion15.30219971
Decay Rate0.00026735
L11 66026U 25232X 25353.82621443 .00026735 00000+0 91096-3 0 9992
L22 66026 53.1587 115.1817 0000442 31.3959 328.7068 15.30219971 11199



Live tracking and technical data element details for STARLINK-34812 (NORAD 66026). STARLINK-34812 can be tracked NOW for your location showing map with azimuth and elevation plus other details from your city location.







IsCatalogInMostPopularTable: catalog: 66026, numindb: 14
Update: records affected: 1



GetName: 66026 STARLINK-34812

Hit Count: updated at: Thu, 21 May 2026 11:40:23 GMT